Zurück zum Katalog

STARLINK-36680

AktivKommunikationVLEO
NORAD 68721·PAYLOAD·🇺🇸 United States

Gestartet Apr 14, 2026 von Cape Canaveral Space Force Station

Loading…

Nächste Überflüge (nächste 24 Stunden)

TLE

AktuellSource: CelesTrak SupGP

Epoche: Sep 14, 2026, 20:56 UTC

1 68721C 26081Y   26257.87270833  .00042084  00000+0  12434-2 0  2571
2 68721  53.1584 231.8534 0001466  98.3467  17.1067 15.34368011    17

Verfolge STARLINK-36680 in Echtzeit mit AllMySat

Download on the App Store